Regional Weather Roundup
Issued by NWS Memphis, TN

Home | Current Version | Previous Version | Text Only | Print | Product List | Glossary On
Versions: 1 2 3 4 5 6 7 8 9 10 11 12 13 14 15 16 17 18 19 20 21 22 23 24 25 26 27 28 29 30 31 32 33 34 35 36 37 38 39 40 41 42 43 44 45 46 47 48 49 50
000
ASUS44 KMEG 212210
RWRMEG
MEMPHIS CWA HOURLY WEATHER ROUNDUP
NATIONAL WEATHER SERVICE MEMPHIS TN
500 PM CDT THU AUG 21 2014

...WEST TENNESSEE...

CITY           SKY/WX    TMP DP  RH WIND       PRES   REMARKS
MEMPHIS INTL   MOSUNNY   92  71  50 SW8G17    30.04F HX  98
NWS MEMPHIS      N/A     94 N/A N/A MISG        N/A
JACKSON        MOSUNNY   91  74  57 SW8       30.04F HX 100
LEXINGTON      SUNNY     90  72  55 SW7       30.05F HX  96
SAVANNAH       PTSUNNY   90  73  58 SW5       30.07S HX  98
DYERSBURG      SUNNY     91  70  49 SW7G17    30.03S HX  97
UNION CITY     SUNNY     90  75  62 S6        30.02S HX 100
PARIS          SUNNY     90  72  55 SW9       30.05S HX  96
HUNTINGDON     SUNNY     89  72  57 SW9       30.04F HX  96


...EASTERN ARKANSAS...

CITY           SKY/WX    TMP DP  RH WIND       PRES   REMARKS
JONESBORO      SUNNY     93  71  48 S16       30.00F HX 100
WEST MEMPHIS   SUNNY     92  75  57 SW6       30.02F HX 103
BATESVILLE     SUNNY     95  70  43 S13       29.99F HX 101
NEWPORT        SUNNY     95  75  52 S10G17    30.01F HX 106
WALNUT RIDGE   MOSUNNY   93  70  46 S20       29.97F HX  99
BLYTHEVILLE    SUNNY     91  76  61 SW14      30.01F HX 103
SEARCY           N/A     93  73  52 CALM        N/A  HX 101
STUTTGART      SUNNY     93  73  52 S9        30.04F HX 102
PINE BLUFF     SUNNY     92  72  51 S7        30.03F HX  99
MONTICELLO     MOSUNNY   92  72  51 S6        30.04F HX  99


...NORTH MISSISSIPPI...

CITY           SKY/WX    TMP DP  RH WIND       PRES   REMARKS
TUPELO         SUNNY     94  70  45 VRB6      30.06F HX 100
OLIVE BRANCH   MOSUNNY   91  75  59 S9        30.05F HX 102
CLARKSDALE     MOSUNNY   91  77  62 CALM      30.05F HX 105
CORINTH        MOSUNNY   91  73  55 VRB5      30.06S HX 100
GRENADA        SUNNY     91  70  49 CALM      30.06S HX  97
GREENWOOD      SUNNY     93  73  52 SW6       30.05F HX 102
COLUMBUS       SUNNY     94  70  45 W2        30.05F HX  99
STARKVILLE     FAIR      95  70  43 NW3       30.05F HX 101
GOLDEN TRIANGL MOSUNNY   97  72  44 N9        30.06F HX 105


...SOUTHEAST MISSOURI...

CITY           SKY/WX    TMP DP  RH WIND       PRES   REMARKS
WEST PLAINS    SUNNY     93  68  43 S10       30.01F HX  97
POPLAR BLUFF   PTSUNNY   90  73  57 S12       29.97F HX  98
CAPE GIRARDEAU PTSUNNY   89  76  65 S10       29.98F HX 100


...NORTHWEST ALABAMA...

CITY           SKY/WX    TMP DP  RH WIND       PRES   REMARKS
MUSCLE SHOALS  SUNNY     91  71  51 SW6       30.08F HX  97


...MIDDLE TENNESSEE...

CITY           SKY/WX    TMP DP  RH WIND       PRES   REMARKS
NASHVILLE      MOSUNNY   92  70  48 SW6       30.06S HX  97
CLARKSVILLE    SUNNY     90  71  53 S12       30.03F HX  96
COLUMBIA       MOSUNNY   93  73  52 SW9       30.06F HX 102
LEWISBURG      SUNNY     93  69  45 W7        30.08F HX  98


...WESTERN KENTUCKY...

CITY           SKY/WX    TMP DP  RH WIND       PRES   REMARKS
PADUCAH        MOSUNNY   91  74  57 SW10      30.00S HX 100
FORT CAMPBELL  SUNNY     92  73  52 SW12      30.03S HX 100


...CENTRAL ARKANSAS...

CITY           SKY/WX    TMP DP  RH WIND       PRES   REMARKS
LITTLE ROCK    MOSUNNY   91  71  51 S9        30.02F HX  97


SKY/WX REPORTED AS FAIR MEANS FEW OR NO CLOUDS BELOW
12 THOUSAND FEET.



USA.gov is the U.S. government's official web portal to all federal, state and local government web resources and services.